Location: Unspecified
(0.0000°N, 0.0000°E)
Time: 06:51:19
(UTC+00:00)

Vanguard 3 - Pass Details

Date: 08 December 2017
Orbit: 508 x 3264 km, 33.3° (Epoch: 21 April)

Event Time Altitude Azimuth Distance (km) Brightness Sun altitude
Rises 18:43:59 0° 341° (NNW) 3,787 10.5 -11.9°
Reaches altitude 10° 18:47:31 10° 2° (N) 3,248 10.0 -12.7°
Maximum altitude 18:52:45 17° 41° (NE) 3,313 9.7 -13.9°
Enters shadow 18:54:38 16° 53° (NE) 3,569 9.8 -14.4°
Drops below altitude 10° 18:59:47 10° 77° (ENE) 4,613 - -15.6°
Sets 19:06:26 0° 93° (E) 6,226 - -17.1°
